星链-30084 (STARLINK-30084 )

导读

STARLINK-30084是美国SpaceX星链星座中的低轨通信卫星,于2023年6月4日发射升空,属于星链二代组网部署的组成部分。该卫星运行在近地轨道,采用Starlink v2.0 mini平台设计,具备自动规避空间碎片能力,旨在为全球提供高速低延迟宽带互联网服务,助力偏远地区网络覆盖,是星链大规模低轨星座构建中的一环,目前保持在轨运行状态。

Basic Information
目录编号:
56825
目录名称:
STARLINK-30084
国际标识:
2023-079C
轨道中心:
EARTH
卫星名称:
星链-30084
卫星全名:
星链-30084 (STARLINK-30084 )
卫星状态:
在轨 (已飞行1188 天)
发射日期:
2023-06-04 UTC
国别 :
美国 (US)
星等 :
--
Orbit Information
数据来源 国际轨道数据 AOE轨道数据
星历时间 2026-09-04T20:40:28+0800
8小时前
查看轨道信息
2026-09-03T23:00:00+0800
1天前
查看轨道信息
半长轴 6861.194km 6861.184km
偏心率 0.0001121 0.000001
轨道倾角 43.003° 43.001°
近地点辐角 258.846° 237.105°
升交点赤经 176.702° 181.804°
平近点角 101.227° 190.759°
近地点 482.287km 483.04km
远地点 483.827km 483.054km
周期 94.267分钟 94.267分钟
每日圈数 15.275775 15.27581
Detailed Information
固有亮度:
5
最大亮度:
0.5
卫星平台:
Starlink v2.0 mini
覆盖范围:
全球
运营商:
太空探索技术公司
运营商所在国:
美国
制造商(研发单位):
太空探索技术公司
制造商所在国:
美国
使用方式:
暂无
Satellite Introduction
星链(Starlink)计划是由太空探索技术公司(SpaceX)提出的一个巨型低轨卫星互联网星座项目,计划在2019年至2024年间在太空搭建由约1.2万颗卫星组成的“星链”网络,其中1584颗将部署在地球上空550千米处的近地轨道,并从2020年开始工作。该卫星仍在工作。
2D Orbit Map
3D Orbit Map
Orbit Altitude Analysis Chart
Orbit Inclination Analysis Chart
Orbit Comprehensive Analysis Chart
View Comprehensive Chart
Conjunction Data List
Event ID Objects TCA Miss Dist (km) Collision Risk Probability Collision Risk Index (CRI) Action
CDM_260905-061905-682505-870022
2026-09-05T
06:19:29+0000
1.918 km
极远距离
2.757314E-6 低风险 0.44
CDM_260906-055005-307805-682521
2026-09-06T
05:50:52+0000
1.959 km
极远距离
2.647376E-6 低风险 0.43
CDM_260905-023505-682506-187023
OBJECT B (61870)
2026-09-05T
02:35:12+0000
2.250 km
极远距离
2.076422E-6 低风险 0.41